Victoria, TX

6:53 PM CDT on October 21, 2019 (GMT -0500)
Victoria Regional

Weather History for KVCT - August, 2019

Change the Weather History Date:

Wednesday, August 21, 2019

  Actual Average Record
Temperature  
Mean Temperature 84 °F 84 °F  
Max Temperature 93 °F 95 °F 104 °F (1930)
Min Temperature 74 °F 74 °F 65 °F (1940)
Degree Days  
Heating Degree Days 0 0  
Month to date heating degree days 0 0  
Since 1 June heating degree days 0 0  
Since 1 July heating degree days 0 0  
Cooling Degree Days 18 19  
Month to date cooling degree days 463 417  
Year to date cooling degree days 2416 2170  
Since 1 June cooling degree days 1648 1511  
Growing Degree Days 34 (Base 50)    
Moisture  
Dew Point 74 °F    
Average Humidity 77    
Maximum Humidity 94    
Minimum Humidity 49    
Precipitation  
Precipitation 0.65 in 0.09 in 1.45 in (1963)
Month to date precipitation 0.75 1.70  
Year to date precipitation 15.39 25.72  
Snow  
Snow 0.00 in 0.00 in 0.00 in (2002)
Month to date snowfall 0.0 0.0  
Since 1 June snowfall 0.0 0.0  
Since 1 July snowfall 0.0 0.0  
Snow Depth 0.00 in    
Sea Level Pressure  
Sea Level Pressure 29.99 in    
Wind  
Wind Speed 6 mph ()    
Max Wind Speed 23 mph    
Max Gust Speed 28 mph    
Visibility 8.4 miles    
Events Rain , Thunderstorm    
T = Trace of Precipitation, MM = Missing Value Source: Averaged Metar Reports

Daily Weather History Graph

Daily Weather History Graph

Search for Another Location

Airport or City:

Astronomy

Aug. 21, 2019 Rise Set
Actual Time 6:59 AM CDT 8:01 PM CDT
Civil Twilight 6:35 AM CDT 8:25 PM CDT
Nautical Twilight 6:06 AM CDT 8:54 PM CDT
Astronomical Twilight 5:36 AM CDT 9:24 PM CDT
Moon 11:47 PM CDT 12:10 PM CDT
Length of Visible Light 13h 50m
Length of Day
13h 01m
Waning Gibbous, 69% of the Moon is Illuminated
Aug 21
Waning Gibbous
Aug 23
Last Quarter
Aug 30
New
Sep 5
First Quarter
Sep 13
Full

Hourly Weather History & Observations

Time (CDT) Temp. Heat Index Dew Point Humidity Pressure Visibility Wind Dir Wind Speed Gust Speed Precip Events Conditions
12:51 AM 79.0 °F - 73.9 °F 84% 30.00 in 10.0 mi SSE 4.6 mph - N/A   Clear
1:51 AM 78.1 °F - 73.9 °F 87% 30.00 in 10.0 mi SE 5.8 mph - N/A   Clear
2:51 AM 77.0 °F - 73.0 °F 88% 29.99 in 10.0 mi SSE 5.8 mph - N/A   Clear
3:51 AM 77.0 °F - 73.0 °F 88% 29.99 in 10.0 mi SE 4.6 mph - N/A   Clear
4:51 AM 77.0 °F - 73.9 °F 90% 29.98 in 10.0 mi Calm Calm - N/A   Clear
5:51 AM 75.9 °F - 73.0 °F 91% 29.99 in 7.0 mi Calm Calm - N/A   Partly Cloudy
6:03 AM 75.9 °F - 73.0 °F 91% 30.00 in 8.0 mi Calm Calm - N/A   Mostly Cloudy
6:39 AM 75.9 °F - 73.0 °F 91% 30.00 in 8.0 mi Calm Calm - N/A   Scattered Clouds
6:51 AM 75.9 °F - 73.0 °F 91% 30.00 in 9.0 mi SSE 3.5 mph - N/A   Partly Cloudy
7:51 AM 79.0 °F - 75.0 °F 88% 30.00 in 7.0 mi Calm Calm - N/A   Partly Cloudy
8:51 AM 84.0 °F 92.6 °F 75.9 °F 76% 30.01 in 10.0 mi SW 3.5 mph - N/A   Partly Cloudy
9:44 AM 88.0 °F 97.5 °F 75.0 °F 65% 30.02 in 10.0 mi SSW 8.1 mph - N/A   Mostly Cloudy
9:51 AM 89.1 °F 99.1 °F 75.0 °F 63% 30.01 in 10.0 mi SSW 8.1 mph - N/A   Mostly Cloudy
10:05 AM 88.0 °F 97.5 °F 75.0 °F 65% 30.02 in 10.0 mi South 6.9 mph - N/A   Scattered Clouds
10:51 AM 91.0 °F 99.3 °F 73.0 °F 55% 30.02 in 10.0 mi Variable 6.9 mph - N/A   Partly Cloudy
11:51 AM 93.0 °F 100.1 °F 71.1 °F 49% 30.01 in 10.0 mi North - - N/A   Mostly Cloudy
12:21 PM 84.0 °F 91.2 °F 73.9 °F 72% 30.03 in 7.0 mi East 15.0 mph - 0.00 in Rain Light Rain
12:41 PM 80.1 °F 84.5 °F 73.9 °F 81% 30.03 in 2.0 mi East 11.5 mph - 0.04 in Rain Rain
12:51 PM 80.1 °F 85.1 °F 75.0 °F 85% 30.03 in 7.0 mi SE 6.9 mph - 0.06 in Rain Light Rain
1:14 PM 82.9 °F 87.0 °F 70.0 °F 65% 30.02 in 2.5 mi Variable 3.5 mph 21.9 mph 0.03 in Rain Light Rain
1:19 PM 84.0 °F 89.0 °F 71.1 °F 65% 30.02 in 7.0 mi West 5.8 mph - 0.03 in Rain , Thunderstorm Light Rain
1:51 PM 86.0 °F 92.2 °F 72.0 °F 63% 30.01 in 10.0 mi West 6.9 mph - 0.03 in   Overcast
2:37 PM 88.0 °F 95.6 °F 73.0 °F 61% 30.00 in 10.0 mi WSW 8.1 mph - N/A Thunderstorm Thunderstorm
2:43 PM 87.1 °F 94.5 °F 73.0 °F 63% 30.01 in 10.0 mi SSE 15.0 mph 20.7 mph 0.00 in Rain , Thunderstorm Thunderstorms and Rain
2:51 PM 79.0 °F - 73.9 °F 84% 30.01 in 3.0 mi SSE 18.4 mph 27.6 mph 0.02 in Rain , Thunderstorm Thunderstorms and Rain
2:54 PM 77.0 °F - 73.0 °F 88% 30.02 in 3.0 mi SSE 13.8 mph 27.6 mph 0.18 in Rain , Thunderstorm Light Thunderstorms and Rain
3:06 PM 78.1 °F - 73.9 °F 87% 30.01 in 5.0 mi SSE 13.8 mph - 0.52 in Rain , Thunderstorm Light Thunderstorms and Rain
3:25 PM 79.0 °F - 73.0 °F 82% 29.99 in 7.0 mi SSE 15.0 mph - 0.54 in Rain , Thunderstorm Light Rain
3:34 PM 79.0 °F - 73.0 °F 82% 29.98 in 7.0 mi SSE 15.0 mph - 0.54 in Rain Light Rain
3:51 PM 81.0 °F 86.2 °F 73.9 °F 79% 29.96 in 10.0 mi SSE 13.8 mph - 0.54 in   Overcast
4:51 PM 87.1 °F 97.3 °F 75.9 °F 69% 29.94 in 10.0 mi SE 5.8 mph - N/A   Partly Cloudy
5:51 PM 90.0 °F 97.9 °F 73.0 °F 57% 29.94 in 10.0 mi ESE 6.9 mph - N/A   Partly Cloudy
6:51 PM 90.0 °F 99.0 °F 73.9 °F 59% 29.93 in 10.0 mi ESE 11.5 mph - N/A   Clear
7:51 PM 84.9 °F 92.1 °F 73.9 °F 69% 29.94 in 10.0 mi SE 12.7 mph - N/A   Clear
8:51 PM 82.0 °F 88.6 °F 75.0 °F 79% 29.94 in 10.0 mi SE 11.5 mph - N/A   Clear
9:51 PM 81.0 °F 86.7 °F 75.0 °F 82% 29.96 in 10.0 mi SE 10.4 mph - N/A   Clear
10:51 PM 80.1 °F 85.1 °F 75.0 °F 85% 29.96 in 10.0 mi South 5.8 mph - N/A   Clear
11:51 PM 79.0 °F - 75.0 °F 88% 29.95 in 10.0 mi SE 5.8 mph - N/A   Clear